QPF
0.02 0.02 0.02 0.02 0.03 0.04 0.04 0.04 0.02 0.01 0.00 0.00 0.01 0.01 0.01 0.02 0.04 0.03 0.02 0.02 0.03 0.03 0.03 0.02 0.02 0.02 0.02 0.03 0.04 0.04 0.03 0.03 0.03 0.05 0.06 0.07 0.05 0.03 0.02 0.01 0.02 0.03 0.03
0.02 0.02 0.02 0.02 0.02 0.03 0.04 0.03 0.02 0.01 0.00 0.00 0.00 0.01 0.00 0.01 0.02 0.04 0.05 0.03 0.02 0.03 0.03 0.03 0.02 0.02 0.02 0.02 0.02 0.02 0.03 0.04 0.04 0.05 0.07 0.09 0.08 0.04 0.03 0.02 0.02 0.02 0.03
0.02 0.02 0.02 0.02 0.03 0.03 0.03 0.04 0.03 0.02 0.01 0.01 0.01 0.01 0.01 0.00 0.00 0.01 0.04 0.06 0.05 0.03 0.02 0.02 0.02 0.02 0.02 0.02 0.03 0.02 0.02 0.03 0.04 0.04 0.05 0.07 0.07 0.05 0.03 0.02 0.02 0.02 0.03
0.02 0.02 0.02 0.02 0.03 0.03 0.03 0.03 0.04 0.02 0.02 0.02 0.01 0.01 0.01 0.01 0.00 0.00 0.01 0.03 0.06 0.06 0.05 0.03 0.02 0.02 0.01 0.02 0.03 0.03 0.03 0.03 0.04 0.04 0.04 0.04 0.05 0.04 0.04 0.02 0.02 0.02 0.03
0.02 0.02 0.03 0.02 0.02 0.03 0.03 0.03 0.04 0.03 0.02 0.02 0.01 0.01 0.01 0.02 0.01 0.00 0.00 0.00 0.01 0.04 0.06 0.06 0.05 0.04 0.03 0.02 0.03 0.03 0.03 0.03 0.03 0.03 0.03 0.04 0.04 0.03 0.03 0.02 0.02 0.02 0.02
0.02 0.02 0.02 0.03 0.02 0.02 0.02 0.03 0.03 0.03 0.03 0.03 0.02 0.01 0.01 0.02 0.02 0.01 0.01 0.00 0.01 0.01 0.02 0.04 0.05 0.06 0.06 0.04 0.03 0.03 0.04 0.04 0.03 0.03 0.03 0.03 0.03 0.03 0.03 0.02 0.02 0.02 0.02
0.02 0.01 0.01 0.02 0.02 0.02 0.02 0.02 0.02 0.02 0.02 0.03 0.02 0.02 0.02 0.01 0.01 0.02 0.02 0.01 0.01 0.01 0.00 0.01 0.02 0.04 0.06 0.08 0.06 0.04 0.04 0.04 0.04 0.03 0.03 0.03 0.03 0.02 0.03 0.03 0.02 0.02 0.01
0.01 0.01 0.01 0.02 0.01 0.01 0.01 0.02 0.02 0.01 0.01 0.02 0.02 0.02 0.02 0.02 0.01 0.01 0.02 0.02 0.01 0.01 0.01 0.01 0.01 0.02 0.03 0.05 0.07 0.07 0.05 0.05 0.04 0.03 0.03 0.02 0.02 0.02 0.02 0.02 0.03 0.03 0.03
0.01 0.01 0.01 0.01 0.01 0.00 0.01 0.01 0.01 0.01 0.01 0.01 0.01 0.01 0.01 0.01 0.01 0.01 0.01 0.01 0.01 0.01 0.01 0.01 0.01 0.01 0.02 0.02 0.03 0.06 0.06 0.05 0.04 0.04 0.03 0.02 0.02 0.01 0.01 0.01 0.02 0.03 0.03
0.01 0.01 0.00 0.00 0.00 0.00 0.00 0.00 0.01 0.01 0.01 0.01 0.01 0.01 0.01 0.01 0.01 0.01 0.01 0.01 0.01 0.01 0.01 0.01 0.01 0.01 0.01 0.01 0.01 0.02 0.04 0.05 0.04 0.04 0.03 0.02 0.02 0.01 0.01 0.01 0.01 0.01 0.02
0.01 0.01 0.01 0.01 0.01 0.01 0.00 0.00 0.01 0.01 0.01 0.01 0.01 0.01 0.01 0.01 0.01 0.01 0.00 0.00 0.00 0.01 0.01 0.01 0.01 0.01 0.01 0.01 0.01 0.01 0.01 0.03 0.03 0.03 0.03 0.02 0.01 0.01 0.01 0.01 0.01 0.01 0.01
0.01 0.00 0.00 0.00 0.00 0.00 0.00 0.00 0.00 0.00 0.00 0.00 0.01 0.01 0.01 0.01 0.00 0.00 0.00 0.00 0.00 0.00 0.01 0.01 0.01 0.01 0.00 0.00 0.01 0.01 0.01 0.02 0.02 0.02 0.02 0.02 0.01 0.01 0.01 0.01 0.01 0.01 0.01
0.00 0.00 0.00 0.00 0.00 0.00 0.00 0.00 0.00 0.00 0.00 0.00 0.01 0.01 0.01 0.01 0.01 0.00 0.00 0.00 0.00 0.00 0.00 0.01 0.01 0.01 0.01 0.00 0.00 0.01 0.01 0.01 0.02 0.02 0.02 0.01 0.01 0.01 0.01 0.01 0.01 0.01 0.01
0.01 0.00 0.00 0.00 0.00 0.00 0.00 0.00 0.00 0.00 0.00 0.00 0.01 0.01 0.01 0.00 0.00 0.00 0.00 0.00 0.00 0.00 0.00 0.00 0.01 0.01 0.01 0.01 0.01 0.01 0.01 0.01 0.02 0.01 0.01 0.01 0.01 0.01 0.01 0.01 0.01 0.01 0.01
0.00 0.00 0.00 0.00 0.00 0.00 0.00 0.00 0.00 0.00 0.00 0.00 0.01 0.01 0.01 0.01 0.00 0.00 0.00 0.00 0.00 0.00 0.00 0.00 0.01 0.01 0.01 0.01 0.01 0.01 0.01 0.01 0.02 0.01 0.01 0.01 0.01 0.01 0.01 0.01 0.02 0.02 0.02
0.00 0.00 0.00 0.00 0.00 0.00 0.00 0.00 0.00 0.00 0.00 0.01 0.01 0.01 0.01 0.01 0.01 0.00 0.00 0.00 0.00 0.00 0.00 0.00 0.00 0.01 0.01 0.01 0.01 0.01 0.01 0.01 0.01 0.01 0.01 0.01 0.01 0.01 0.01 0.01 0.02 0.02 0.03
0.00 0.00 0.00 0.00 0.00 0.00 0.00 0.00 0.00 0.00 0.00 0.01 0.01 0.01 0.01 0.01 0.01 0.01 0.00 0.00 0.00 0.00 0.00 0.00 0.00 0.00 0.01 0.01 0.01 0.02 0.02 0.02 0.02 0.01 0.01 0.01 0.01 0.01 0.01 0.01 0.01 0.02 0.02
0.00 0.00 0.00 0.00 0.00 0.00 0.00 0.00 0.00 0.00 0.01 0.01 0.01 0.01 0.01 0.01 0.01 0.01 0.01 0.00 0.00 0.00 0.00 0.00 0.01 0.00 0.00 0.01 0.01 0.02 0.02 0.02 0.02 0.02 0.02 0.02 0.02 0.01 0.01 0.02 0.02 0.02 0.02
0.01 0.01 0.00 0.00 0.01 0.01 0.01 0.01 0.01 0.01 0.01 0.01 0.01 0.01 0.01 0.01 0.01 0.00 0.00 0.00 0.00 0.00 0.00 0.00 0.01 0.01 0.01 0.01 0.01 0.02 0.02 0.02 0.02 0.02 0.03 0.02 0.02 0.02 0.02 0.03 0.03 0.02 0.02
0.02 0.02 0.01 0.01 0.01 0.02 0.02 0.02 0.02 0.02 0.02 0.01 0.01 0.01 0.01 0.01 0.01 0.00 0.00 0.00 0.00 0.00 0.00 0.01 0.01 0.01 0.01 0.01 0.01 0.01 0.02 0.02 0.02 0.02 0.03 0.02 0.02 0.02 0.03 0.03 0.03 0.03 0.03
0.02 0.02 0.01 0.02 0.02 0.02 0.02 0.02 0.02 0.02 0.02 0.02 0.02 0.02 0.02 0.01 0.01 0.01 0.01 0.00 0.01 0.01 0.01 0.01 0.01 0.01 0.01 0.01 0.01 0.01 0.02 0.02 0.02 0.02 0.02 0.02 0.02 0.01 0.02 0.02 0.03 0.03 0.03
0.02 0.01 0.01 0.02 0.02 0.03 0.03 0.03 0.02 0.02 0.02 0.03 0.03 0.03 0.02 0.02 0.02 0.02 0.01 0.01 0.01 0.01 0.01 0.01 0.01 0.01 0.01 0.01 0.01 0.01 0.01 0.01 0.02 0.02 0.02 0.02 0.02 0.02 0.02 0.02 0.02 0.02 0.03
0.01 0.01 0.01 0.02 0.02 0.03 0.03 0.03 0.02 0.02 0.02 0.03 0.03 0.03 0.03 0.02 0.02 0.02 0.02 0.02 0.02 0.02 0.02 0.02 0.02 0.02 0.01 0.01 0.01 0.01 0.01 0.01 0.01 0.01 0.01 0.02 0.02 0.03 0.03 0.03 0.03 0.02 0.03
0.01 0.01 0.01 0.01 0.02 0.02 0.03 0.03 0.03 0.02 0.03 0.03 0.03 0.03 0.03 0.03 0.02 0.02 0.03 0.03 0.03 0.03 0.02 0.02 0.02 0.02 0.01 0.01 0.01 0.01 0.01 0.01 0.01 0.01 0.02 0.02 0.02 0.03 0.03 0.04 0.05 0.05 0.05
0.01 0.01 0.01 0.02 0.02 0.02 0.02 0.03 0.03 0.03 0.03 0.02 0.03 0.03 0.04 0.03 0.03 0.03 0.03 0.03 0.03 0.03 0.03 0.02 0.02 0.02 0.02 0.01 0.01 0.01 0.01 0.01 0.02 0.02 0.03 0.03 0.04 0.04 0.03 0.04 0.04 0.05 0.07
0.01 0.01 0.01 0.01 0.02 0.02 0.02 0.03 0.03 0.03 0.03 0.03 0.03 0.03 0.04 0.05 0.04 0.04 0.04 0.02 0.02 0.02 0.02 0.02 0.03 0.03 0.02 0.02 0.02 0.02 0.01 0.02 0.02 0.02 0.03 0.04 0.05 0.05 0.04 0.04 0.04 0.05 0.07
MSLP
1009.95 1010.53 1010.92 1011.12 1011.16 1011.12 1011.10 1011.18 1011.43 1011.88 1012.53 1013.34 1014.23 1015.12 1015.96 1016.68 1017.26 1017.70 1018.03 1018.28 1018.51 1018.74 1019.00 1019.32 1019.69 1020.09 1020.52 1020.96 1021.40 1021.82 1022.22 1022.60 1022.97 1023.32 1023.67 1024.00 1024.33 1024.65 1024.95 1025.23 1025.47 1025.66 1025.79
1009.40 1010.16 1010.72 1011.07 1011.24 1011.30 1011.34 1011.45 1011.70 1012.14 1012.76 1013.54 1014.40 1015.29 1016.14 1016.87 1017.49 1017.97 1018.33 1018.62 1018.86 1019.10 1019.35 1019.64 1019.98 1020.34 1020.74 1021.14 1021.55 1021.96 1022.35 1022.73 1023.10 1023.46 1023.80 1024.15 1024.49 1024.84 1025.17 1025.50 1025.81 1026.08 1026.30
1008.47 1009.39 1010.13 1010.66 1010.99 1011.19 1011.34 1011.52 1011.81 1012.26 1012.87 1013.63 1014.48 1015.36 1016.22 1016.99 1017.65 1018.19 1018.63 1018.97 1019.26 1019.53 1019.79 1020.06 1020.35 1020.67 1021.00 1021.35 1021.71 1022.07 1022.42 1022.78 1023.13 1023.47 1023.81 1024.15 1024.50 1024.86 1025.23 1025.61 1025.98 1026.34 1026.67
1007.22 1008.28 1009.18 1009.89 1010.41 1010.79 1011.08 1011.37 1011.74 1012.23 1012.85 1013.60 1014.44 1015.33 1016.20 1017.01 1017.73 1018.35 1018.87 1019.30 1019.66 1019.97 1020.25 1020.52 1020.78 1021.04 1021.31 1021.58 1021.87 1022.17 1022.48 1022.79 1023.11 1023.43 1023.75 1024.08 1024.41 1024.77 1025.15 1025.56 1026.00 1026.44 1026.87
1005.80 1006.95 1008.00 1008.88 1009.58 1010.14 1010.60 1011.03 1011.50 1012.06 1012.72 1013.48 1014.32 1015.21 1016.10 1016.94 1017.73 1018.42 1019.03 1019.55 1019.99 1020.36 1020.68 1020.95 1021.19 1021.41 1021.62 1021.83 1022.06 1022.30 1022.56 1022.83 1023.12 1023.41 1023.70 1024.00 1024.31 1024.65 1025.03 1025.45 1025.91 1026.41 1026.91
1004.38 1005.59 1006.73 1007.75 1008.63 1009.36 1010.00 1010.59 1011.18 1011.82 1012.53 1013.32 1014.16 1015.05 1015.94 1016.81 1017.64 1018.40 1019.09 1019.69 1020.22 1020.66 1021.02 1021.31 1021.55 1021.75 1021.92 1022.09 1022.27 1022.48 1022.70 1022.95 1023.21 1023.48 1023.75 1024.02 1024.30 1024.60 1024.95 1025.35 1025.81 1026.32 1026.85
1003.13 1004.35 1005.56 1006.68 1007.69 1008.58 1009.38 1010.12 1010.85 1011.59 1012.36 1013.17 1014.02 1014.90 1015.78 1016.65 1017.50 1018.30 1019.05 1019.72 1020.32 1020.83 1021.25 1021.58 1021.83 1022.03 1022.20 1022.36 1022.52 1022.71 1022.93 1023.17 1023.43 1023.69 1023.94 1024.19 1024.44 1024.70 1025.00 1025.36 1025.77 1026.25 1026.78
1002.20 1003.40 1004.62 1005.79 1006.89 1007.91 1008.85 1009.73 1010.58 1011.42 1012.25 1013.09 1013.94 1014.80 1015.66 1016.51 1017.36 1018.17 1018.95 1019.67 1020.33 1020.89 1021.37 1021.75 1022.05 1022.27 1022.46 1022.63 1022.81 1023.02 1023.25 1023.51 1023.78 1024.05 1024.30 1024.54 1024.76 1024.99 1025.23 1025.52 1025.87 1026.29 1026.77
1001.68 1002.83 1004.01 1005.19 1006.33 1007.43 1008.47 1009.47 1010.43 1011.35 1012.24 1013.11 1013.96 1014.80 1015.62 1016.44 1017.26 1018.06 1018.84 1019.59 1020.28 1020.90 1021.43 1021.87 1022.21 1022.49 1022.72 1022.93 1023.14 1023.37 1023.64 1023.93 1024.24 1024.53 1024.80 1025.04 1025.25 1025.44 1025.64 1025.86 1026.14 1026.49 1026.89
1001.59 1002.65 1003.76 1004.89 1006.03 1007.16 1008.27 1009.35 1010.39 1011.39 1012.33 1013.23 1014.08 1014.90 1015.69 1016.46 1017.24 1018.02 1018.79 1019.55 1020.27 1020.92 1021.50 1021.99 1022.39 1022.71 1022.99 1023.24 1023.50 1023.78 1024.08 1024.41 1024.75 1025.08 1025.38 1025.64 1025.85 1026.02 1026.19 1026.36 1026.57 1026.84 1027.17
1001.89 1002.83 1003.83 1004.88 1005.97 1007.08 1008.21 1009.34 1010.44 1011.50 1012.49 1013.42 1014.28 1015.08 1015.85 1016.59 1017.33 1018.08 1018.84 1019.60 1020.33 1021.02 1021.63 1022.17 1022.62 1022.99 1023.31 1023.60 1023.89 1024.20 1024.54 1024.90 1025.27 1025.64 1025.96 1026.25 1026.47 1026.65 1026.80 1026.95 1027.11 1027.32 1027.58
1002.48 1003.29 1004.15 1005.08 1006.08 1007.15 1008.26 1009.40 1010.54 1011.64 1012.67 1013.63 1014.51 1015.32 1016.07 1016.80 1017.52 1018.26 1019.01 1019.77 1020.51 1021.22 1021.87 1022.44 1022.93 1023.34 1023.69 1024.00 1024.31 1024.64 1024.99 1025.36 1025.75 1026.14 1026.49 1026.80 1027.05 1027.25 1027.41 1027.55 1027.70 1027.87 1028.08
1003.29 1003.95 1004.66 1005.45 1006.33 1007.31 1008.38 1009.50 1010.64 1011.76 1012.83 1013.82 1014.72 1015.55 1016.32 1017.06 1017.79 1018.52 1019.28 1020.05 1020.81 1021.54 1022.21 1022.81 1023.32 1023.75 1024.11 1024.44 1024.75 1025.06 1025.40 1025.77 1026.16 1026.55 1026.92 1027.25 1027.54 1027.77 1027.95 1028.11 1028.26 1028.42 1028.60
1004.26 1004.75 1005.30 1005.94 1006.69 1007.57 1008.55 1009.63 1010.74 1011.86 1012.94 1013.95 1014.89 1015.75 1016.55 1017.32 1018.07 1018.84 1019.62 1020.40 1021.19 1021.94 1022.63 1023.24 1023.77 1024.21 1024.57 1024.88 1025.18 1025.47 1025.79 1026.13 1026.50 1026.88 1027.25 1027.60 1027.91 1028.18 1028.39 1028.58 1028.75 1028.91 1029.09
1005.37 1005.69 1006.08 1006.56 1007.18 1007.93 1008.82 1009.81 1010.87 1011.96 1013.03 1014.05 1015.00 1015.90 1016.74 1017.55 1018.35 1019.15 1019.96 1020.78 1021.59 1022.35 1023.06 1023.69 1024.22 1024.65 1025.01 1025.31 1025.57 1025.84 1026.12 1026.43 1026.77 1027.14 1027.50 1027.86 1028.19 1028.48 1028.73 1028.95 1029.14 1029.32 1029.49
1006.61 1006.79 1007.03 1007.37 1007.85 1008.47 1009.24 1010.12 1011.10 1012.12 1013.14 1014.14 1015.11 1016.02 1016.90 1017.75 1018.59 1019.44 1020.29 1021.13 1021.95 1022.73 1023.45 1024.07 1024.60 1025.03 1025.37 1025.66 1025.91 1026.15 1026.40 1026.68 1027.00 1027.34 1027.70 1028.05 1028.39 1028.70 1028.97 1029.21 1029.42 1029.61 1029.78
1008.04 1008.09 1008.21 1008.42 1008.77 1009.25 1009.88 1010.64 1011.49 1012.41 1013.36 1014.32 1015.26 1016.17 1017.07 1017.95 1018.82 1019.70 1020.57 1021.42 1022.25 1023.03 1023.73 1024.35 1024.86 1025.29 1025.63 1025.90 1026.14 1026.37 1026.61 1026.88 1027.17 1027.50 1027.84 1028.19 1028.53 1028.84 1029.12 1029.37 1029.58 1029.77 1029.92
1009.67 1009.63 1009.65 1009.76 1009.99 1010.34 1010.83 1011.44 1012.15 1012.94 1013.78 1014.65 1015.54 1016.43 1017.31 1018.19 1019.08 1019.95 1020.82 1021.67 1022.47 1023.23 1023.90 1024.49 1024.99 1025.39 1025.73 1026.00 1026.25 1026.48 1026.72 1026.99 1027.28 1027.59 1027.93 1028.27 1028.60 1028.91 1029.18 1029.42 1029.62 1029.79 1029.92
1011.50 1011.40 1011.36 1011.39 1011.52 1011.75 1012.10 1012.56 1013.11 1013.76 1014.47 1015.23 1016.03 1016.86 1017.71 1018.56 1019.42 1020.26 1021.10 1021.90 1022.65 1023.34 1023.97 1024.51 1024.97 1025.35 1025.67 1025.95 1026.21 1026.45 1026.71 1026.98 1027.28 1027.59 1027.92 1028.25 1028.56 1028.86 1029.12 1029.34 1029.52 1029.66 1029.76
1013.48 1013.36 1013.29 1013.27 1013.33 1013.46 1013.67 1013.99 1014.39 1014.88 1015.45 1016.09 1016.79 1017.53 1018.31 1019.10 1019.90 1020.68 1021.44 1022.16 1022.83 1023.44 1023.98 1024.44 1024.85 1025.19 1025.49 1025.76 1026.02 1026.28 1026.55 1026.83 1027.13 1027.44 1027.76 1028.07 1028.37 1028.65 1028.89 1029.08 1029.24 1029.36 1029.44
1015.56 1015.45 1015.37 1015.33 1015.33 1015.38 1015.49 1015.67 1015.93 1016.27 1016.71 1017.22 1017.81 1018.45 1019.14 1019.84 1020.55 1021.25 1021.90 1022.51 1023.07 1023.56 1023.99 1024.36 1024.68 1024.96 1025.22 1025.47 1025.71 1025.96 1026.23 1026.51 1026.80 1027.11 1027.40 1027.70 1027.97 1028.23 1028.44 1028.63 1028.77 1028.88 1028.94
1017.64 1017.56 1017.50 1017.46 1017.42 1017.41 1017.43 1017.50 1017.64 1017.86 1018.17 1018.57 1019.04 1019.58 1020.17 1020.78 1021.38 1021.96 1022.50 1022.98 1023.39 1023.75 1024.05 1024.30 1024.52 1024.72 1024.91 1025.11 1025.31 1025.54 1025.78 1026.03 1026.29 1026.56 1026.83 1027.09 1027.33 1027.56 1027.77 1027.95 1028.09 1028.21 1028.28
1019.64 1019.61 1019.58 1019.54 1019.48 1019.43 1019.39 1019.38 1019.42 1019.54 1019.74 1020.03 1020.41 1020.85 1021.33 1021.84 1022.33 1022.79 1023.19 1023.54 1023.81 1024.03 1024.19 1024.31 1024.41 1024.51 1024.62 1024.74 1024.88 1025.04 1025.22 1025.41 1025.61 1025.82 1026.04 1026.25 1026.46 1026.67 1026.86 1027.05 1027.21 1027.35 1027.47
1021.51 1021.51 1021.51 1021.47 1021.41 1021.33 1021.24 1021.17 1021.14 1021.18 1021.30 1021.51 1021.79 1022.14 1022.53 1022.93 1023.31 1023.65 1023.93 1024.14 1024.28 1024.36 1024.39 1024.39 1024.38 1024.37 1024.38 1024.40 1024.45 1024.52 1024.61 1024.71 1024.82 1024.95 1025.09 1025.24 1025.40 1025.58 1025.77 1025.97 1026.17 1026.36 1026.53
1023.20 1023.23 1023.23 1023.20 1023.13 1023.02 1022.90 1022.78 1022.70 1022.67 1022.73 1022.86 1023.07 1023.34 1023.64 1023.95 1024.23 1024.46 1024.63 1024.73 1024.75 1024.72 1024.63 1024.53 1024.41 1024.30 1024.20 1024.12 1024.06 1024.03 1024.00 1023.99 1023.99 1024.01 1024.06 1024.13 1024.23 1024.38 1024.57 1024.79 1025.03 1025.27 1025.51
1024.69 1024.72 1024.71 1024.67 1024.57 1024.43 1024.27 1024.11 1023.99 1023.92 1023.91 1023.99 1024.13 1024.32 1024.55 1024.77 1024.96 1025.11 1025.19 1025.19 1025.13 1025.01 1024.85 1024.66 1024.46 1024.27 1024.08 1023.91 1023.75 1023.60 1023.45 1023.32 1023.20 1023.10 1023.04 1023.03 1023.07 1023.17 1023.35 1023.58 1023.85 1024.15 1024.45
Thickness
5545 5543 5543 5543 5543 5543 5543 5543 5543 5542 5541 5542 5542 5542 5541 5540 5540 5541 5541 5542 5543 5544 5546 5546 5547 5549 5551 5553 5554 5557 5557 5558 5560 5563 5566 5569 5571 5572 5572 5572 5573 5573 5574
5533 5531 5530 5531 5532 5532 5532 5532 5531 5531 5531 5531 5530 5530 5529 5529 5528 5528 5529 5530 5531 5533 5534 5535 5536 5537 5539 5541 5543 5545 5546 5547 5548 5550 5555 5561 5563 5563 5562 5562 5562 5563 5564
5522 5519 5518 5518 5519 5520 5520 5520 5520 5519 5519 5518 5518 5518 5518 5518 5518 5518 5518 5518 5519 5520 5522 5523 5524 5525 5527 5529 5530 5532 5535 5536 5536 5537 5540 5546 5552 5550 5553 5552 5552 5553 5554
5510 5508 5506 5506 5506 5506 5506 5507 5507 5506 5506 5506 5507 5508 5509 5509 5508 5506 5506 5506 5507 5508 5509 5510 5512 5513 5515 5516 5517 5519 5521 5523 5524 5524 5526 5528 5531 5534 5540 5542 5542 5542 5543
5498 5497 5495 5494 5493 5493 5493 5493 5493 5493 5493 5493 5494 5495 5495 5495 5494 5494 5494 5495 5495 5495 5496 5497 5499 5500 5502 5503 5504 5506 5507 5510 5511 5513 5514 5515 5517 5520 5525 5530 5532 5531 5532
5486 5485 5483 5481 5480 5480 5480 5480 5481 5481 5480 5481 5481 5482 5482 5481 5482 5482 5482 5483 5483 5483 5483 5484 5485 5487 5488 5490 5492 5493 5495 5496 5498 5499 5501 5503 5505 5508 5512 5516 5519 5520 5521
5475 5473 5472 5471 5469 5469 5468 5468 5468 5468 5467 5467 5468 5468 5468 5469 5469 5469 5470 5470 5470 5470 5471 5471 5472 5474 5475 5477 5478 5481 5482 5483 5484 5487 5489 5490 5492 5494 5497 5502 5505 5507 5509
5462 5461 5461 5460 5459 5458 5457 5456 5456 5456 5455 5455 5455 5454 5454 5455 5456 5455 5455 5456 5456 5457 5457 5458 5459 5460 5462 5464 5465 5467 5469 5470 5472 5474 5476 5478 5480 5481 5484 5487 5490 5494 5499
5449 5448 5448 5448 5448 5447 5446 5444 5444 5443 5442 5442 5441 5441 5441 5441 5441 5441 5441 5442 5442 5443 5443 5444 5445 5447 5449 5451 5452 5454 5456 5457 5459 5461 5463 5466 5468 5469 5471 5473 5476 5480 5487
5437 5436 5436 5436 5436 5434 5432 5431 5430 5430 5429 5428 5428 5428 5427 5426 5426 5427 5428 5428 5429 5429 5430 5431 5432 5434 5436 5437 5440 5442 5443 5445 5447 5448 5450 5453 5456 5458 5460 5461 5464 5467 5472
5425 5424 5424 5423 5422 5421 5419 5418 5417 5416 5416 5415 5415 5414 5414 5413 5413 5414 5414 5414 5414 5415 5416 5417 5419 5421 5423 5425 5427 5429 5430 5432 5434 5436 5438 5440 5443 5446 5448 5450 5452 5455 5458
5411 5411 5410 5410 5409 5408 5406 5405 5404 5403 5402 5402 5401 5401 5401 5401 5401 5401 5401 5400 5400 5401 5402 5404 5405 5407 5410 5412 5414 5416 5418 5420 5422 5424 5426 5428 5430 5434 5436 5438 5441 5443 5447
5398 5397 5396 5395 5395 5395 5394 5393 5392 5391 5389 5388 5388 5388 5388 5388 5388 5388 5388 5387 5387 5388 5388 5390 5392 5394 5397 5399 5401 5403 5405 5407 5410 5412 5414 5416 5418 5422 5424 5427 5429 5431 5434
5385 5384 5383 5382 5382 5382 5381 5380 5379 5377 5376 5376 5375 5375 5375 5375 5375 5375 5374 5374 5374 5375 5375 5377 5379 5381 5383 5386 5388 5390 5393 5395 5397 5399 5401 5404 5407 5410 5412 5414 5417 5419 5422
5374 5373 5372 5371 5370 5369 5368 5367 5366 5365 5363 5363 5363 5362 5362 5361 5361 5361 5361 5361 5362 5362 5363 5363 5365 5368 5371 5374 5376 5377 5380 5382 5385 5387 5389 5392 5394 5397 5399 5402 5405 5407 5411
5363 5362 5360 5359 5357 5356 5355 5354 5353 5352 5351 5350 5350 5349 5349 5348 5348 5348 5348 5348 5350 5350 5350 5351 5353 5356 5358 5361 5362 5363 5366 5370 5372 5375 5378 5380 5382 5384 5386 5389 5392 5395 5398
5351 5349 5348 5346 5345 5343 5342 5341 5340 5339 5338 5338 5338 5337 5336 5336 5336 5336 5336 5336 5337 5338 5338 5340 5341 5344 5346 5347 5348 5349 5352 5357 5360 5364 5367 5369 5372 5374 5376 5379 5381 5384 5386
5339 5337 5335 5333 5332 5330 5328 5328 5327 5326 5325 5325 5325 5324 5324 5324 5323 5323 5324 5324 5324 5325 5326 5328 5329 5332 5334 5334 5336 5337 5339 5344 5348 5351 5355 5358 5361 5364 5366 5369 5372 5376 5379
5326 5324 5322 5320 5318 5317 5316 5314 5314 5313 5313 5313 5313 5312 5311 5311 5312 5312 5312 5312 5313 5313 5314 5316 5318 5320 5323 5323 5323 5324 5327 5332 5337 5340 5343 5346 5350 5354 5355 5358 5364 5368 5371
5312 5311 5309 5307 5306 5305 5304 5302 5302 5302 5302 5301 5301 5299 5299 5299 5300 5300 5301 5301 5301 5302 5303 5304 5306 5308 5311 5312 5312 5312 5315 5321 5326 5330 5333 5336 5340 5343 5344 5348 5353 5359 5364
5300 5298 5296 5295 5294 5293 5292 5291 5291 5290 5290 5288 5288 5287 5287 5287 5288 5288 5289 5289 5290 5291 5292 5294 5297 5298 5300 5301 5302 5301 5303 5309 5314 5319 5324 5328 5330 5333 5336 5339 5344 5350 5352
5287 5286 5285 5283 5282 5281 5280 5280 5279 5278 5277 5277 5277 5276 5276 5276 5276 5277 5277 5277 5278 5280 5282 5284 5286 5288 5290 5291 5292 5293 5294 5297 5302 5308 5314 5318 5321 5324 5326 5330 5334 5337 5339
5276 5275 5273 5272 5271 5269 5269 5269 5268 5267 5266 5266 5266 5266 5266 5265 5266 5266 5267 5267 5268 5269 5272 5274 5277 5279 5280 5282 5283 5284 5286 5287 5291 5297 5303 5306 5309 5313 5316 5320 5323 5326 5329
5264 5263 5262 5261 5260 5259 5258 5257 5257 5256 5255 5255 5255 5256 5256 5256 5256 5257 5257 5258 5259 5260 5262 5265 5267 5269 5270 5272 5274 5275 5277 5279 5282 5287 5292 5295 5299 5302 5306 5311 5313 5316 5320
5252 5252 5251 5250 5249 5249 5248 5248 5247 5246 5246 5245 5246 5246 5246 5247 5247 5247 5247 5248 5250 5251 5253 5255 5257 5258 5262 5264 5264 5265 5268 5271 5274 5277 5281 5286 5290 5294 5299 5302 5304 5308 5311
5242 5241 5241 5240 5239 5239 5239 5238 5238 5237 5236 5237 5237 5237 5237 5237 5237 5238 5239 5240 5241 5243 5245 5246 5247 5250 5252 5254 5255 5257 5259 5262 5264 5266 5271 5277 5282 5286 5290 5293 5296 5298 5302